This is the latest recevied weather packets stored in our database for station/object KB3VSP. If no packets are shown the sender has not sent any weather packets the latest 10 day(s).
| Time | Temp. | Humidity | Pressure | Rain* | Wind** | Luminosity | Snow |
|---|---|---|---|---|---|---|---|
| 1777362254 | 15.56° C | 61% | 1014.1 hPa | 0 mm | - | 0 W/m² | - |
| 1777361950 | 15° C | 62% | 1014 hPa | 0 mm | - | 0 W/m² | - |
| 1777361648 | 15.56° C | 63% | 1014.1 hPa | 0 mm | - | 0 W/m² | - |
| 1777361345 | 15.56° C | 60% | 1014.2 hPa | 0 mm | - | 0 W/m² | - |
| 1777361042 | 16.11° C | 57% | 1014.5 hPa | 0 mm | - | 0 W/m² | - |
| 1777360740 | 16.11° C | 56% | 1014.3 hPa | 0 mm | - | 0 W/m² | - |
| 1777360437 | 16.11° C | 55% | 1014.2 hPa | 0 mm | - | 0 W/m² | - |
| 1777360134 | 16.11° C | 55% | 1014.1 hPa | 0 mm | - | 0 W/m² | - |
| 1777359830 | 16.11° C | 57% | 1014.2 hPa | 0 mm | - | 0 W/m² | - |
| 1777359528 | 16.11° C | 56% | 1014.4 hPa | 0 mm | - | 0 W/m² | - |
| 1777359224 | 16.11° C | 55% | 1014.5 hPa | 0 mm | - | 0 W/m² | - |
| 1777358922 | 16.67° C | 55% | 1014.4 hPa | 0 mm | - | 0 W/m² | - |
| 1777358619 | 16.67° C | 55% | 1014.4 hPa | 0 mm | - | 0 W/m² | - |
| 1777358316 | 16.11° C | 55% | 1014.8 hPa | 0 mm | - | 0 W/m² | - |
| 1777358014 | 16.67° C | 55% | 1014.8 hPa | 0 mm | - | 0 W/m² | - |
| 1777357712 | 16.67° C | 55% | 1015.2 hPa | 0 mm | - | 0 W/m² | - |
| 1777357408 | 16.67° C | 55% | 1015.2 hPa | 0 mm | - | 0 W/m² | - |
| 1777357105 | 16.67° C | 55% | 1015 hPa | 0 mm | - | 0 W/m² | - |
| 1777356802 | 16.67° C | 54% | 1015.2 hPa | 0 mm | - | 0 W/m² | - |
| 1777356500 | 16.67° C | 55% | 1015.1 hPa | 0 mm | - | 0 W/m² | - |
| 1777356196 | 16.67° C | 55% | 1015.2 hPa | 0 mm | - | 0 W/m² | - |
| 1777355893 | 16.67° C | 55% | 1014.9 hPa | 0 mm | - | 0 W/m² | - |
| 1777355589 | 16.67° C | 55% | 1014.9 hPa | 0 mm | - | 0 W/m² | - |
| 1777355287 | 16.67° C | 55% | 1015 hPa | 0 mm | - | 0 W/m² | - |
| 1777354983 | 16.67° C | 55% | 1014.9 hPa | 0 mm | - | 0 W/m² | - |
* Rain latest hour (hover to see other rain measurements)
** Current wind speed in m/s (hover to see current wind gust speed)